When you browse on this site, cookies collect data to enhance your experience and personalize the content and advertising you see.
Visit our Privacy Policy to learn more. By continuing to use the site, you agree to this use of cookies and data.
  • In Hungary
  • List of Countries
  • For 7 days
  • Water Temperature
  • Satellite Maps
  • Weather Map
  • News
  • Weather Widgets
  • user-avatar
    Login

    Hourly Weather Dobele

    Today, 26 June, Wednesday

    Time Temperature Precipitation Wind Pressure Humidity
    00:00 +16°C° 0 mm 2 mps 764 mmHg 72%
    01:00 +16°C° 0 mm 1 mps 764 mmHg 76%
    02:00 +15°C° 0 mm 1 mps 763 mmHg 82%
    03:00 +15°C° 0 mm 1 mps 763 mmHg 84%
    04:00 +16°C° 0 mm 1 mps 762 mmHg 86%
    05:00 +16°C° 0 mm 1 mps 762 mmHg 88%
    06:00 +19°C° 0 mm 1 mps 761 mmHg 83%
    07:00 +21°C° 0 mm 1 mps 761 mmHg 78%
    08:00 +23°C° 0 mm 1 mps 761 mmHg 74%
    09:00 +24°C° 0 mm 1 mps 760 mmHg 67%
    10:00 +26°C° 0 mm 1 mps 760 mmHg 60%
    11:00 +27°C° 0 mm 1 mps 760 mmHg 52%
    12:00 +28°C° 0 mm 1 mps 759 mmHg 53%
    13:00 +28°C° 0 mm 1 mps 759 mmHg 54%
    14:00 +29°C° 0 mm 2 mps 759 mmHg 54%
    15:00 +29°C° 0 mm 2 mps 758 mmHg 57%
    16:00 +29°C° 0 mm 2 mps 757 mmHg 59%
    17:00 +29°C° 0 mm 2 mps 756 mmHg 61%
    18:00 +27°C° 0.6 mm 2 mps 756 mmHg 70%
    19:00 +26°C° 0.6 mm 1 mps 755 mmHg 79%
    20:00 +24°C° 0.6 mm 1 mps 754 mmHg 87%
    21:00 +23°C° 0.2 mm 2 mps 754 mmHg 90%
    22:00 +21°C° 0.2 mm 2 mps 753 mmHg 92%
    23:00 +20°C° 0.2 mm 2 mps 753 mmHg 94%

    Tomorrow, 27 June, Thursday

    Time Temperature Precipitation Wind Pressure Humidity
    00:00 +19°C° 0.1 mm 2 mps 752 mmHg 95%
    01:00 +18°C° 0.1 mm 2 mps 752 mmHg 95%
    02:00 +17°C° 0.1 mm 2 mps 751 mmHg 96%
    03:00 +17°C° 0.2 mm 2 mps 751 mmHg 95%
    04:00 +17°C° 0.2 mm 3 mps 750 mmHg 95%
    05:00 +17°C° 0.2 mm 3 mps 750 mmHg 95%
    06:00 +17°C° 0.1 mm 4 mps 751 mmHg 93%
    07:00 +16°C° 0.1 mm 5 mps 751 mmHg 91%
    08:00 +16°C° 0.1 mm 5 mps 751 mmHg 89%
    09:00 +16°C° 0.1 mm 5 mps 752 mmHg 86%
    10:00 +16°C° 0.1 mm 6 mps 752 mmHg 82%
    11:00 +17°C° 0.1 mm 6 mps 752 mmHg 78%
    12:00 +19°C° 0 mm 6 mps 753 mmHg 70%
    13:00 +20°C° 0 mm 6 mps 753 mmHg 63%
    14:00 +21°C° 0 mm 7 mps 753 mmHg 55%
    15:00 +20°C° 0 mm 7 mps 753 mmHg 55%
    16:00 +20°C° 0 mm 7 mps 754 mmHg 56%
    17:00 +18°C° 0 mm 7 mps 754 mmHg 56%
    18:00 +17°C° 0 mm 6 mps 754 mmHg 60%
    19:00 +15°C° 0 mm 6 mps 754 mmHg 64%
    20:00 +14°C° 0 mm 5 mps 754 mmHg 68%
    21:00 +14°C° 0 mm 5 mps 754 mmHg 68%
    22:00 +13°C° 0 mm 5 mps 754 mmHg 69%
    23:00 +12°C° 0 mm 5 mps 755 mmHg 69%

    Day after tomorrow, 28 June, Friday

    Time Temperature Precipitation Wind Pressure Humidity
    00:00 +12°C° 0 mm 5 mps 755 mmHg 70%
    01:00 +12°C° 0 mm 5 mps 755 mmHg 71%
    02:00 +13°C° 0 mm 5 mps 755 mmHg 71%
    03:00 +13°C° 0 mm 5 mps 755 mmHg 72%
    04:00 +13°C° 0 mm 5 mps 755 mmHg 72%
    05:00 +13°C° 0 mm 5 mps 755 mmHg 73%
    06:00 +14°C° 0 mm 5 mps 755 mmHg 67%
    07:00 +15°C° 0 mm 6 mps 755 mmHg 62%
    08:00 +16°C° 0 mm 7 mps 756 mmHg 56%
    09:00 +17°C° 0 mm 7 mps 756 mmHg 53%
    10:00 +18°C° 0 mm 7 mps 756 mmHg 49%
    11:00 +18°C° 0 mm 7 mps 756 mmHg 46%
    12:00 +20°C° 0 mm 7 mps 756 mmHg 44%
    13:00 +20°C° 0 mm 7 mps 756 mmHg 43%
    14:00 +20°C° 0 mm 7 mps 756 mmHg 42%
    15:00 +20°C° 0 mm 6 mps 756 mmHg 44%
    16:00 +19°C° 0 mm 6 mps 757 mmHg 46%
    17:00 +19°C° 0 mm 6 mps 757 mmHg 48%
    18:00 +16°C° 0 mm 5 mps 757 mmHg 54%
    19:00 +15°C° 0 mm 5 mps 757 mmHg 59%
    20:00 +14°C° 0 mm 4 mps 757 mmHg 65%
    21:00 +12°C° 0 mm 4 mps 757 mmHg 68%
    22:00 +11°C° 0 mm 4 mps 757 mmHg 72%
    23:00 +10°C° 0 mm 3 mps 758 mmHg 75%

    29 June, Saturday

    Time Temperature Precipitation Wind Pressure Humidity
    00:00 +9°C° 0 mm 3 mps 757 mmHg 76%
    01:00 +9°C° 0 mm 3 mps 757 mmHg 78%
    02:00 +8°C° 0 mm 3 mps 757 mmHg 79%
    03:00 +9°C° 0 mm 3 mps 757 mmHg 76%
    04:00 +11°C° 0 mm 4 mps 757 mmHg 73%
    05:00 +12°C° 0 mm 4 mps 757 mmHg 70%
    06:00 +13°C° 0 mm 4 mps 757 mmHg 70%
    07:00 +14°C° 0 mm 4 mps 757 mmHg 70%
    08:00 +15°C° 0 mm 4 mps 757 mmHg 70%
    09:00 +15°C° 0 mm 5 mps 757 mmHg 72%
    10:00 +16°C° 0 mm 5 mps 757 mmHg 73%
    11:00 +16°C° 0 mm 5 mps 757 mmHg 75%
    12:00 +17°C° 0 mm 5 mps 757 mmHg 71%
    13:00 +19°C° 0 mm 5 mps 756 mmHg 67%
    14:00 +20°C° 0 mm 5 mps 756 mmHg 62%
    15:00 +21°C° 0 mm 5 mps 756 mmHg 61%
    16:00 +22°C° 0 mm 4 mps 756 mmHg 59%
    17:00 +22°C° 0 mm 4 mps 756 mmHg 57%
    18:00 +20°C° 0 mm 4 mps 756 mmHg 65%
    19:00 +19°C° 0 mm 3 mps 756 mmHg 71%
    20:00 +18°C° 0 mm 2 mps 756 mmHg 77%
    21:00 +17°C° 0 mm 2 mps 757 mmHg 81%
    22:00 +15°C° 0 mm 2 mps 757 mmHg 86%
    23:00 +14°C° 0 mm 2 mps 757 mmHg 90%

    30 June, Sunday

    Time Temperature Precipitation Wind Pressure Humidity
    00:00 +13°C° 0 mm 2 mps 757 mmHg 89%
    01:00 +13°C° 0 mm 2 mps 757 mmHg 88%
    02:00 +13°C° 0 mm 2 mps 757 mmHg 88%
    03:00 +13°C° 0 mm 2 mps 756 mmHg 86%
    04:00 +13°C° 0 mm 2 mps 756 mmHg 85%
    05:00 +14°C° 0 mm 2 mps 756 mmHg 84%
    06:00 +16°C° 0 mm 3 mps 756 mmHg 80%
    07:00 +18°C° 0 mm 3 mps 756 mmHg 76%
    08:00 +20°C° 0 mm 3 mps 756 mmHg 72%
    09:00 +21°C° 0 mm 4 mps 756 mmHg 70%
    10:00 +23°C° 0 mm 4 mps 756 mmHg 69%
    11:00 +25°C° 0 mm 5 mps 756 mmHg 67%
    12:00 +26°C° 0 mm 5 mps 755 mmHg 64%
    13:00 +27°C° 0 mm 5 mps 755 mmHg 61%
    14:00 +28°C° 0 mm 6 mps 754 mmHg 57%
    15:00 +27°C° 0 mm 6 mps 754 mmHg 58%
    16:00 +27°C° 0 mm 5 mps 753 mmHg 58%
    17:00 +26°C° 0 mm 5 mps 753 mmHg 59%
    18:00 +25°C° 0 mm 5 mps 753 mmHg 65%
    19:00 +23°C° 0 mm 4 mps 752 mmHg 71%
    20:00 +22°C° 0 mm 3 mps 752 mmHg 76%
    21:00 +21°C° 0 mm 4 mps 751 mmHg 77%
    22:00 +21°C° 0 mm 4 mps 751 mmHg 78%
    23:00 +21°C° 0 mm 5 mps 750 mmHg 79%

    1 July, Monday

    Time Temperature Precipitation Wind Pressure Humidity
    00:00 +21°C° 0 mm 4 mps 750 mmHg 79%
    01:00 +20°C° 0 mm 4 mps 750 mmHg 79%
    02:00 +20°C° 0 mm 4 mps 749 mmHg 78%
    03:00 +20°C° 0 mm 4 mps 749 mmHg 82%
    04:00 +19°C° 0 mm 4 mps 749 mmHg 86%
    05:00 +19°C° 0 mm 4 mps 749 mmHg 90%
    06:00 +19°C° 0 mm 4 mps 750 mmHg 84%
    07:00 +20°C° 0 mm 5 mps 750 mmHg 77%
    08:00 +20°C° 0 mm 5 mps 750 mmHg 71%
    09:00 +21°C° 0 mm 6 mps 750 mmHg 67%
    10:00 +22°C° 0 mm 6 mps 750 mmHg 63%
    11:00 +23°C° 0 mm 6 mps 751 mmHg 59%
    12:00 +23°C° 0 mm 6 mps 751 mmHg 58%
    13:00 +23°C° 0 mm 7 mps 751 mmHg 57%
    14:00 +23°C° 0 mm 7 mps 751 mmHg 57%
    15:00 +22°C° 0 mm 6 mps 751 mmHg 58%
    16:00 +22°C° 0 mm 6 mps 751 mmHg 59%
    17:00 +21°C° 0 mm 6 mps 751 mmHg 60%
    18:00 +20°C° 0 mm 5 mps 751 mmHg 65%
    19:00 +19°C° 0 mm 4 mps 750 mmHg 71%
    20:00 +18°C° 0 mm 3 mps 750 mmHg 77%
    21:00 +17°C° 0 mm 4 mps 750 mmHg 81%
    22:00 +15°C° 0 mm 4 mps 750 mmHg 86%
    23:00 +14°C° 0 mm 4 mps 750 mmHg 90%
    Show more